,,Stat6,,Stat2,,Stat8,,Stat9,,Stat10,,Wind1,,Wind1,
time,status,PA1M_AVG,status,PR1M_SUM,status,RH1M_AVG,status,SR1M_AVG,status,TA1M_AVG,status,W1dAve1m,status,W1sAve1m,
2005-02-09, 00:00:00,VALID,919.68,VALID,0,VALID,93.1234,VALID,-0.101885,VALID,18.6396,VALID,146,VALID,1.71152,
2005-02-09, 00:01:00,VALID,919.658,VALID,0,VALID,92.8322,VALID,-0.101885,VALID,18.6523,VALID,141,VALID,1.28143,
2005-02-09, 00:02:00,VALID,919.658,VALID,0,VALID,92.7928,VALID,-0.101885,VALID,18.6783,VALID,137,VALID,1.37445,
2005-02-09, 00:03:00,VALID,919.649,VALID,0,VALID,92.8004,VALID,-0.101885,VALID,18.7044,VALID,135,VALID,1.51344,
2005-02-09, 00:04:00,VALID,919.617,VALID,0,VALID,92.747,VALID,-0.0849042,VALID,18.7141,VALID,132,VALID,1.48765,
2005-02-09, 00:05:00,VALID,919.604,VALID,0,VALID,92.6745,VALID,-0.101885,VALID,18.7171,VALID,131,VALID,1.60156,
2005-02-09, 00:06:00,VALID,919.585,VALID,0,VALID,92.3465,VALID,0.0169808,VALID,18.7283,VALID,125,VALID,1.22599,
2005-02-09, 00:07:00,VALID,919.582,VALID,0,VALID,92.2257,VALID,0,VALID,18.7353,VALID,129,VALID,1.48722,
2005-02-09, 00:08:00,VALID,919.589,VALID,0,VALID,91.923,VALID,0,VALID,18.745,VALID,137,VALID,1.86935,
2005-02-09, 00:09:00,VALID,919.591,VALID,0,VALID,91.5581,VALID,0.0169808,VALID,18.7998,VALID,136,VALID,1.6224,
2005-02-09, 00:10:00,VALID,919.604,VALID,0,VALID,91.291,VALID,0.0169808,VALID,18.8513,VALID,138,VALID,1.53034,
2005-02-09, 00:11:00,VALID,919.605,VALID,0,VALID,91.1855,VALID,0,VALID,18.8806,VALID,141,VALID,1.46676,
2005-02-09, 00:12:00,VALID,919.606,VALID,0,VALID,91.0278,VALID,0,VALID,18.9131,VALID,140,VALID,1.35084,
2005-02-09, 00:13:00,VALID,919.612,VALID,0,VALID,90.7773,VALID,0.0169808,VALID,18.926,VALID,141,VALID,1.28144,
2005-02-09, 00:14:00,VALID,919.62,VALID,0,VALID,90.6883,VALID,0.0169808,VALID,18.9297,VALID,134,VALID,1.71948,
2005-02-09, 00:15:00,VALID,919.603,VALID,0,VALID,90.7837,VALID,-0.0339617,VALID,18.9357,VALID,137,VALID,1.3763,
2005-02-09, 00:16:00,VALID,919.579,VALID,0,VALID,90.8638,VALID,-0.0339617,VALID,18.9193,VALID,132,VALID,1.55283,
2005-02-09, 00:17:00,VALID,919.561,VALID,0,VALID,90.6705,VALID,0,VALID,18.9128,VALID,137,VALID,1.71389,
2005-02-09, 00:18:00,VALID,919.538,VALID,0,VALID,89.8185,VALID,0,VALID,18.9553,VALID,135,VALID,2.16094,
2005-02-09, 00:19:00,VALID,919.519,VALID,0,VALID,89.4523,VALID,0,VALID,19.0166,VALID,135,VALID,1.45276,
2005-02-09, 00:20:00,VALID,919.528,VALID,0,VALID,89.3595,VALID,0,VALID,19.0522,VALID,140,VALID,1.47385,
2005-02-09, 00:21:00,VALID,919.522,VALID,0,VALID,89.2959,VALID,-0.0509425,VALID,19.0596,VALID,134,VALID,1.49434,
2005-02-09, 00:22:00,VALID,919.521,VALID,0,VALID,89.142,VALID,-0.0509425,VALID,19.0668,VALID,140,VALID,1.26086,
2005-02-09, 00:23:00,VALID,919.518,VALID,0,VALID,88.8585,VALID,-0.0849042,VALID,19.0499,VALID,126,VALID,1.40323,
2005-02-09, 00:24:00,VALID,919.503,VALID,0,VALID,88.5762,VALID,-0.101885,VALID,19.0665,VALID,136,VALID,1.19341,
2005-02-09, 00:25:00,VALID,919.486,VALID,0,VALID,88.2176,VALID,-0.0849042,VALID,19.0727,VALID,138,VALID,1.42645,
2005-02-09, 00:26:00,VALID,919.461,VALID,0,VALID,87.6962,VALID,-0.0849042,VALID,19.0986,VALID,120,VALID,1.38662,
2005-02-09, 00:27:00,VALID,919.448,VALID,0,VALID,87.4902,VALID,-0.101885,VALID,19.1242,VALID,125,VALID,1.15075,
2005-02-09, 00:28:00,VALID,919.427,VALID,0,VALID,87.1761,VALID,-0.0509425,VALID,19.1468,VALID,128,VALID,1.63336,
2005-02-09, 00:29:00,VALID,919.404,VALID,0,VALID,86.9765,VALID,-0.101885,VALID,19.1992,VALID,123,VALID,1.22438,
2005-02-09, 00:30:00,VALID,919.387,VALID,0,VALID,86.9332,VALID,-0.0849042,VALID,19.1987,VALID,101,VALID,0.951853,
2005-02-09, 00:31:00,VALID,919.381,VALID,0,VALID,87.1303,VALID,-0.0679233,VALID,19.1567,VALID,110,VALID,1.03587,
2005-02-09, 00:32:00,VALID,919.378,VALID,0,VALID,87.3885,VALID,-0.118866,VALID,19.1145,VALID,136,VALID,0.910352,
2005-02-09, 00:33:00,VALID,919.374,VALID,0,VALID,87.7038,VALID,-0.0849042,VALID,19.066,VALID,149,VALID,1.00438,
2005-02-09, 00:34:00,VALID,919.394,VALID,0,VALID,88.0777,VALID,-0.101885,VALID,19.0114,VALID,144,VALID,1.38129,
2005-02-09, 00:35:00,VALID,919.398,VALID,0,VALID,88.4439,VALID,-0.101885,VALID,18.9793,VALID,157,VALID,1.77121,
2005-02-09, 00:36:00,VALID,919.394,VALID,0,VALID,88.4757,VALID,0,VALID,18.9751,VALID,153,VALID,1.6066,
2005-02-09, 00:37:00,VALID,919.386,VALID,0,VALID,88.4515,VALID,-0.0169808,VALID,18.9712,VALID,154,VALID,1.64916,
2005-02-09, 00:38:00,VALID,919.38,VALID,0,VALID,88.1985,VALID,0,VALID,18.9936,VALID,143,VALID,1.67283,
2005-02-09, 00:39:00,VALID,919.366,VALID,0,VALID,87.99,VALID,0,VALID,19.0296,VALID,141,VALID,1.26458,
2005-02-09, 00:40:00,VALID,919.347,VALID,0,VALID,87.6771,VALID,0,VALID,19.0683,VALID,146,VALID,1.5207,
2005-02-09, 00:41:00,VALID,919.341,VALID,0,VALID,87.3999,VALID,0,VALID,19.1299,VALID,151,VALID,1.63725,
2005-02-09, 00:42:00,VALID,919.334,VALID,0,VALID,87.3402,VALID,0,VALID,19.1322,VALID,138,VALID,1.79629,
2005-02-09, 00:43:00,VALID,919.341,VALID,0,VALID,87.1303,VALID,0,VALID,19.152,VALID,132,VALID,1.38663,
2005-02-09, 00:44:00,VALID,919.347,VALID,0,VALID,87.0782,VALID,0,VALID,19.1716,VALID,134,VALID,1.53196,
2005-02-09, 00:45:00,VALID,919.339,VALID,0,VALID,86.8913,VALID,0.0169808,VALID,19.1774,VALID,137,VALID,2.04897,
2005-02-09, 00:46:00,VALID,919.338,VALID,0,VALID,86.5174,VALID,0.0169808,VALID,19.223,VALID,140,VALID,2.08739,
2005-02-09, 00:47:00,VALID,919.332,VALID,0,VALID,86.3636,VALID,0.0169808,VALID,19.2782,VALID,129,VALID,1.48594,
2005-02-09, 00:48:00,VALID,919.303,VALID,0,VALID,86.2784,VALID,-0.0169808,VALID,19.2913,VALID,132,VALID,1.73209,
2005-02-09, 00:49:00,VALID,919.288,VALID,0,VALID,86.1983,VALID,0,VALID,19.3139,VALID,135,VALID,1.50093,
2005-02-09, 00:50:00,VALID,919.266,VALID,0,VALID,86.1042,VALID,0.0509425,VALID,19.3169,VALID,133,VALID,1.28072,
2005-02-09, 00:51:00,VALID,919.246,VALID,0,VALID,86.0228,VALID,0.0169808,VALID,19.2976,VALID,133,VALID,1.41016,
2005-02-09, 00:52:00,VALID,919.233,VALID,0,VALID,85.9795,VALID,0.0169808,VALID,19.2909,VALID,136,VALID,1.58537,
2005-02-09, 00:53:00,VALID,919.234,VALID,0,VALID,86.019,VALID,0.0679233,VALID,19.2809,VALID,132,VALID,1.61882,
2005-02-09, 00:54:00,VALID,919.21,VALID,0,VALID,85.9846,VALID,0.0509425,VALID,19.2874,VALID,135,VALID,1.32831,
2005-02-09, 00:55:00,VALID,919.203,VALID,0,VALID,86.0177,VALID,0.0679233,VALID,19.2712,VALID,133,VALID,1.38063,
2005-02-09, 00:56:00,VALID,919.183,VALID,0,VALID,86.1398,VALID,0,VALID,19.2593,VALID,147,VALID,1.05505,
2005-02-09, 00:57:00,VALID,919.189,VALID,0,VALID,86.2275,VALID,0,VALID,19.2198,VALID,130,VALID,1.15483,
2005-02-09, 00:58:00,VALID,919.18,VALID,0,VALID,86.1703,VALID,0.0509425,VALID,19.1878,VALID,126,VALID,1.50927,
2005-02-09, 00:59:00,VALID,919.169,VALID,0,VALID,86.1957,VALID,0.0509425,VALID,19.1647,VALID,119,VALID,0.998728,
2005-02-09, 01:00:00,VALID,919.155,VALID,0,VALID,86.3712,VALID,0,VALID,19.1552,VALID,121,VALID,1.24564,
2005-02-09, 01:01:00,VALID,919.13,VALID,0,VALID,86.4119,VALID,0,VALID,19.1297,VALID,122,VALID,1.27587,
2005-02-09, 01:02:00,VALID,919.104,VALID,0,VALID,86.5047,VALID,0.0339617,VALID,19.1326,VALID,112,VALID,1.21057,
2005-02-09, 01:03:00,VALID,919.091,VALID,0,VALID,86.6179,VALID,0.0509425,VALID,19.11,VALID,109,VALID,1.04836,
2005-02-09, 01:04:00,VALID,919.068,VALID,0,VALID,86.637,VALID,0.0169808,VALID,19.0713,VALID,102,VALID,1.38523,
2005-02-09, 01:05:00,VALID,919.049,VALID,0,VALID,86.52,VALID,0.0169808,VALID,19.0524,VALID,110,VALID,1.34139,
2005-02-09, 01:06:00,VALID,919.037,VALID,0,VALID,86.3674,VALID,0.0339617,VALID,19.0422,VALID,123,VALID,1.16079,
2005-02-09, 01:07:00,VALID,919.032,VALID,0,VALID,86.1003,VALID,0,VALID,19.0489,VALID,120,VALID,1.60529,
2005-02-09, 01:08:00,VALID,919.026,VALID,0,VALID,85.9274,VALID,0.0339617,VALID,19.0877,VALID,127,VALID,1.44023,
2005-02-09, 01:09:00,VALID,919.006,VALID,0,VALID,85.8943,VALID,0,VALID,19.0939,VALID,132,VALID,1.39695,
2005-02-09, 01:10:00,VALID,918.994,VALID,0,VALID,85.9923,VALID,0,VALID,19.1036,VALID,133,VALID,1.55011,
2005-02-09, 01:11:00,VALID,918.972,VALID,0,VALID,86.1957,VALID,0,VALID,19.0777,VALID,131,VALID,1.39139,
2005-02-09, 01:12:00,VALID,918.96,VALID,0,VALID,86.7234,VALID,0.0169808,VALID,19.0522,VALID,132,VALID,1.27135,
2005-02-09, 01:13:00,VALID,918.94,VALID,0,VALID,87.3147,VALID,0.0509425,VALID,18.9772,VALID,126,VALID,1.16513,
2005-02-09, 01:14:00,VALID,918.926,VALID,0,VALID,87.6517,VALID,0,VALID,18.8967,VALID,107,VALID,0.840216,
2005-02-09, 01:15:00,VALID,918.908,VALID,0,VALID,88.1286,VALID,0,VALID,18.8291,VALID,119,VALID,1.25127,
2005-02-09, 01:16:00,VALID,918.893,VALID,0,VALID,88.4808,VALID,-0.0169808,VALID,18.7747,VALID,128,VALID,1.38434,
2005-02-09, 01:17:00,VALID,918.888,VALID,0,VALID,88.6448,VALID,0,VALID,18.7355,VALID,124,VALID,1.23266,
2005-02-09, 01:18:00,VALID,918.867,VALID,0,VALID,88.819,VALID,0.0169808,VALID,18.6809,VALID,122,VALID,1.07013,
2005-02-09, 01:19:00,VALID,918.88,VALID,0,VALID,89.1395,VALID,-0.0169808,VALID,18.6131,VALID,122,VALID,0.876817,
2005-02-09, 01:20:00,VALID,918.86,VALID,0,VALID,89.6112,VALID,0,VALID,18.5487,VALID,119,VALID,1.05952,
2005-02-09, 01:21:00,VALID,918.849,VALID,0,VALID,90.2534,VALID,0,VALID,18.468,VALID,130,VALID,1.11541,
2005-02-09, 01:22:00,VALID,918.837,VALID,0,VALID,90.6997,VALID,0,VALID,18.3806,VALID,139,VALID,0.603516,
2005-02-09, 01:23:00,VALID,918.829,VALID,0,VALID,91.2885,VALID,0,VALID,18.2974,VALID,142,VALID,0.96503,
2005-02-09, 01:24:00,VALID,918.814,VALID,0,VALID,92.2575,VALID,0,VALID,18.2098,VALID,140,VALID,1.33408,
2005-02-09, 01:25:00,VALID,918.821,VALID,0,VALID,93.0815,VALID,0,VALID,18.1357,VALID,139,VALID,1.18887,
2005-02-09, 01:26:00,VALID,918.803,VALID,0,VALID,93.6816,VALID,0,VALID,18.0124,VALID,139,VALID,1.31974,
2005-02-09, 01:27:00,VALID,918.802,VALID,0,VALID,94.4993,VALID,0,VALID,17.9388,VALID,131,VALID,1.09549,
2005-02-09, 01:28:00,VALID,918.777,VALID,0,VALID,94.8045,VALID,0,VALID,17.8609,VALID,118,VALID,0.662464,
2005-02-09, 01:29:00,VALID,918.767,VALID,0,VALID,94.7587,VALID,0.0169808,VALID,17.7903,VALID,108,VALID,0.661754,
2005-02-09, 01:30:00,VALID,918.754,VALID,0,VALID,95.0385,VALID,0,VALID,17.7124,VALID,128,VALID,0.791424,
2005-02-09, 01:31:00,VALID,918.734,VALID,0,VALID,95.4924,VALID,0,VALID,17.658,VALID,135,VALID,0.964177,
2005-02-09, 01:32:00,VALID,918.741,VALID,0,VALID,95.528,VALID,0,VALID,17.6287,VALID,133,VALID,0.975654,
2005-02-09, 01:33:00,VALID,918.731,VALID,0,VALID,95.4352,VALID,0,VALID,17.6128,VALID,134,VALID,1.10751,
2005-02-09, 01:34:00,VALID,918.732,VALID,0,VALID,95.4187,VALID,-0.0169808,VALID,17.5868,VALID,136,VALID,1.05596,
2005-02-09, 01:35:00,VALID,918.725,VALID,0,VALID,95.5039,VALID,0,VALID,17.5842,VALID,137,VALID,1.0625,
2005-02-09, 01:36:00,VALID,918.722,VALID,0,VALID,95.5318,VALID,0.0849042,VALID,17.5797,VALID,134,VALID,1.16313,
2005-02-09, 01:37:00,VALID,918.703,VALID,0,VALID,95.5802,VALID,0.101885,VALID,17.5728,VALID,137,VALID,1.2255,
2005-02-09, 01:38:00,VALID,918.693,VALID,0,VALID,95.5941,VALID,0.0849042,VALID,17.5764,VALID,141,VALID,1.49655,
2005-02-09, 01:39:00,VALID,918.688,VALID,0,VALID,95.4199,VALID,0.101885,VALID,17.5988,VALID,144,VALID,1.41627,
2005-02-09, 01:40:00,VALID,918.679,VALID,0,VALID,95.1376,VALID,0.101885,VALID,17.6281,VALID,148,VALID,1.43545,
2005-02-09, 01:41:00,VALID,918.67,VALID,0,VALID,94.7422,VALID,0.0849042,VALID,17.6834,VALID,145,VALID,1.19389,
2005-02-09, 01:42:00,VALID,918.672,VALID,0,VALID,94.4688,VALID,0.0679233,VALID,17.715,VALID,148,VALID,1.56555,
2005-02-09, 01:43:00,VALID,918.662,VALID,0,VALID,94.3785,VALID,0.101885,VALID,17.7639,VALID,150,VALID,1.633,
2005-02-09, 01:44:00,VALID,918.672,VALID,0,VALID,94.1483,VALID,0.0679233,VALID,17.7996,VALID,133,VALID,1.21113,
2005-02-09, 01:45:00,VALID,918.646,VALID,0,VALID,93.6995,VALID,0.0849042,VALID,17.8123,VALID,111,VALID,0.634337,
2005-02-09, 01:46:00,VALID,918.639,VALID,0,VALID,93.6906,VALID,0.0849042,VALID,17.7798,VALID,134,VALID,1.0503,
2005-02-09, 01:47:00,VALID,918.621,VALID,0,VALID,94.039,VALID,0.101885,VALID,17.7733,VALID,147,VALID,1.33097,
2005-02-09, 01:48:00,VALID,918.607,VALID,0,VALID,94.0097,VALID,0.101885,VALID,17.7895,VALID,144,VALID,1.30004,
2005-02-09, 01:49:00,VALID,918.62,VALID,0,VALID,94.0161,VALID,0.101885,VALID,17.8125,VALID,144,VALID,1.20955,
2005-02-09, 01:50:00,VALID,918.633,VALID,0,VALID,94.0021,VALID,0.101885,VALID,17.8282,VALID,147,VALID,1.21819,
2005-02-09, 01:51:00,VALID,918.63,VALID,0,VALID,93.7834,VALID,0,VALID,17.8521,VALID,151,VALID,1.43441,
2005-02-09, 01:52:00,VALID,918.636,VALID,0,VALID,93.4375,VALID,-0.0169808,VALID,17.9171,VALID,146,VALID,1.00586,
2005-02-09, 01:53:00,VALID,918.654,VALID,0,VALID,93.2086,VALID,-0.0169808,VALID,17.9234,VALID,137,VALID,0.995898,
2005-02-09, 01:54:00,VALID,918.636,VALID,0,VALID,93.1247,VALID,-0.0339617,VALID,17.9427,VALID,146,VALID,1.19531,
2005-02-09, 01:55:00,VALID,918.644,VALID,0,VALID,92.9047,VALID,-0.0339617,VALID,17.9916,VALID,141,VALID,1.35766,
2005-02-09, 01:56:00,VALID,918.634,VALID,0,VALID,92.5881,VALID,-0.0339617,VALID,18.0368,VALID,136,VALID,1.32478,
2005-02-09, 01:57:00,VALID,918.607,VALID,0,VALID,92.4685,VALID,0,VALID,18.0686,VALID,135,VALID,1.46342,
2005-02-09, 01:58:00,VALID,918.573,VALID,0,VALID,92.4317,VALID,-0.0169808,VALID,18.1235,VALID,139,VALID,1.52637,
2005-02-09, 01:59:00,VALID,918.561,VALID,0,VALID,92.0871,VALID,-0.0339617,VALID,18.1846,VALID,142,VALID,1.33921,
2005-02-09, 02:00:00,VALID,918.553,VALID,0,VALID,91.7908,VALID,-0.0339617,VALID,18.2305,VALID,150,VALID,1.20414,
2005-02-09, 02:01:00,VALID,918.532,VALID,0,VALID,91.6039,VALID,0,VALID,18.2395,VALID,146,VALID,1.38228,
2005-02-09, 02:02:00,VALID,918.518,VALID,0,VALID,91.5492,VALID,0,VALID,18.269,VALID,150,VALID,1.29892,
2005-02-09, 02:03:00,VALID,918.528,VALID,0,VALID,91.4665,VALID,0,VALID,18.2852,VALID,157,VALID,1.31372,
2005-02-09, 02:04:00,VALID,918.521,VALID,0,VALID,91.6089,VALID,-0.0169808,VALID,18.275,VALID,157,VALID,1.54408,
2005-02-09, 02:05:00,VALID,918.524,VALID,0,VALID,91.6306,VALID,-0.0169808,VALID,18.2856,VALID,156,VALID,1.33503,
2005-02-09, 02:06:00,VALID,918.524,VALID,0,VALID,91.6255,VALID,0.0679233,VALID,18.2907,VALID,157,VALID,1.04818,
2005-02-09, 02:07:00,VALID,918.541,VALID,0,VALID,91.5555,VALID,0.0509425,VALID,18.2937,VALID,153,VALID,1.38372,
2005-02-09, 02:08:00,VALID,918.543,VALID,0,VALID,91.3114,VALID,0.0169808,VALID,18.3167,VALID,139,VALID,0.840892,
2005-02-09, 02:09:00,VALID,918.541,VALID,0,VALID,91.2503,VALID,0.0509425,VALID,18.3137,VALID,164,VALID,0.775174,
2005-02-09, 02:10:00,VALID,918.547,VALID,0,VALID,91.272,VALID,0.0339617,VALID,18.3071,VALID,166,VALID,0.741186,
2005-02-09, 02:11:00,VALID,918.547,VALID,0,VALID,90.9884,VALID,0.0339617,VALID,18.3262,VALID,150,VALID,0.542969,
2005-02-09, 02:12:00,VALID,918.554,VALID,0,VALID,90.7214,VALID,0.0339617,VALID,18.2967,VALID,161,VALID,1.13406,
2005-02-09, 02:13:00,VALID,918.541,VALID,0,VALID,90.4708,VALID,0.0169808,VALID,18.3073,VALID,161,VALID,0.762251,
2005-02-09, 02:14:00,VALID,918.55,VALID,0,VALID,89.98,VALID,0.0169808,VALID,18.2935,VALID,112,VALID,0.478871,
2005-02-09, 02:15:00,VALID,918.534,VALID,0,VALID,90.4047,VALID,0.101885,VALID,18.2296,VALID,117,VALID,0.788681,
2005-02-09, 02:16:00,VALID,918.52,VALID,0,VALID,90.8434,VALID,0.0509425,VALID,18.1712,VALID,146,VALID,0.780692,
2005-02-09, 02:17:00,VALID,918.508,VALID,0,VALID,91.0049,VALID,0.0679233,VALID,18.1521,VALID,157,VALID,0.975632,
2005-02-09, 02:18:00,VALID,918.511,VALID,0,VALID,90.7417,VALID,0.0509425,VALID,18.139,VALID,132,VALID,0.74375,
2005-02-09, 02:19:00,VALID,918.511,VALID,0,VALID,90.5891,VALID,0.0509425,VALID,18.0774,VALID,101,VALID,0.573946,
2005-02-09, 02:20:00,VALID,918.501,VALID,0,VALID,91.0202,VALID,0.101885,VALID,17.9485,VALID,68,VALID,0.945685,
2005-02-09, 02:21:00,VALID,918.497,VALID,0,VALID,92.0184,VALID,-0.0679233,VALID,17.8145,VALID,70,VALID,1.12336,
2005-02-09, 02:22:00,VALID,918.498,VALID,0,VALID,93.0242,VALID,-0.0509425,VALID,17.7472,VALID,81,VALID,0.987424,
2005-02-09, 02:23:00,VALID,918.448,VALID,0,VALID,93.337,VALID,-0.101885,VALID,17.7435,VALID,73,VALID,0.68064,
2005-02-09, 02:24:00,VALID,918.433,VALID,0,VALID,93.1641,VALID,-0.0679233,VALID,17.7564,VALID,69,VALID,0.504278,
2005-02-09, 02:25:00,VALID,918.418,VALID,0,VALID,92.9289,VALID,-0.0679233,VALID,17.7532,VALID,64,VALID,0.437309,
2005-02-09, 02:26:00,VALID,918.383,VALID,0,VALID,93.1183,VALID,-0.0509425,VALID,17.7338,VALID,64,VALID,0.407738,
2005-02-09, 02:27:00,VALID,918.363,VALID,0,VALID,93.0649,VALID,-0.0509425,VALID,17.7407,VALID,69,VALID,0.591992,
2005-02-09, 02:28:00,VALID,918.342,VALID,0,VALID,93.1247,VALID,-0.0509425,VALID,17.6884,VALID,104,VALID,0.597039,
2005-02-09, 02:29:00,VALID,918.322,VALID,0,VALID,92.8437,VALID,-0.0509425,VALID,17.6824,VALID,109,VALID,0.327753,
2005-02-09, 02:30:00,VALID,918.318,VALID,0,VALID,92.5563,VALID,-0.0509425,VALID,17.6049,VALID,93,VALID,0.349382,
2005-02-09, 02:31:00,VALID,918.32,VALID,0,VALID,92.9759,VALID,-0.0849042,VALID,17.5115,VALID,65,VALID,0.623633,
2005-02-09, 02:32:00,VALID,918.307,VALID,0,VALID,93.8966,VALID,-0.0339617,VALID,17.4274,VALID,65,VALID,0.341602,
2005-02-09, 02:33:00,VALID,918.305,VALID,0,VALID,94.3848,VALID,-0.0679233,VALID,17.4016,VALID,90,VALID,0.529883,
2005-02-09, 02:34:00,VALID,918.308,VALID,0,VALID,94.2755,VALID,-0.0509425,VALID,17.3882,VALID,104,VALID,0.661458,
2005-02-09, 02:35:00,VALID,918.301,VALID,0,VALID,94.437,VALID,-0.0679233,VALID,17.3887,VALID,106,VALID,0.650724,
2005-02-09, 02:36:00,VALID,918.285,VALID,0,VALID,94.6493,VALID,0.0169808,VALID,17.3744,VALID,130,VALID,0.991667,
2005-02-09, 02:37:00,VALID,918.281,VALID,0,VALID,94.8719,VALID,0.0339617,VALID,17.3904,VALID,128,VALID,1.04707,
2005-02-09, 02:38:00,VALID,918.256,VALID,0,VALID,94.718,VALID,0.0339617,VALID,17.4295,VALID,108,VALID,1.2555,
2005-02-09, 02:39:00,VALID,918.263,VALID,0,VALID,94.5247,VALID,0.0339617,VALID,17.4717,VALID,105,VALID,1.28354,
2005-02-09, 02:40:00,VALID,918.254,VALID,0,VALID,94.5336,VALID,0.0169808,VALID,17.4874,VALID,122,VALID,1.00152,
2005-02-09, 02:41:00,VALID,918.238,VALID,0,VALID,94.2628,VALID,0.0169808,VALID,17.5199,VALID,107,VALID,1.1854,
2005-02-09, 02:42:00,VALID,918.242,VALID,0,VALID,93.819,VALID,-0.0509425,VALID,17.5374,VALID,99,VALID,1.10633,
2005-02-09, 02:43:00,VALID,918.233,VALID,0,VALID,93.7847,VALID,-0.0679233,VALID,17.5662,VALID,114,VALID,1.42045,
2005-02-09, 02:44:00,VALID,918.226,VALID,0,VALID,93.3281,VALID,-0.0849042,VALID,17.6178,VALID,113,VALID,1.03125,
2005-02-09, 02:45:00,VALID,918.208,VALID,0,VALID,93.3905,VALID,-0.0509425,VALID,17.6372,VALID,130,VALID,1.14169,
2005-02-09, 02:46:00,VALID,918.214,VALID,0,VALID,93.3307,VALID,-0.0339617,VALID,17.6727,VALID,113,VALID,1.07452,
2005-02-09, 02:47:00,VALID,918.221,VALID,0,VALID,93.2391,VALID,-0.0849042,VALID,17.7057,VALID,111,VALID,1.2592,
2005-02-09, 02:48:00,VALID,918.201,VALID,0,VALID,93.2251,VALID,-0.0679233,VALID,17.7179,VALID,125,VALID,1.34757,
2005-02-09, 02:49:00,VALID,918.194,VALID,0,VALID,92.9518,VALID,-0.0169808,VALID,17.7631,VALID,124,VALID,1.20366,
2005-02-09, 02:50:00,VALID,918.181,VALID,0,VALID,92.616,VALID,-0.0509425,VALID,17.8177,VALID,115,VALID,1.3625,
2005-02-09, 02:51:00,VALID,918.189,VALID,0,VALID,92.494,VALID,0,VALID,17.8302,VALID,106,VALID,1.16315,
2005-02-09, 02:52:00,VALID,918.182,VALID,0,VALID,92.4291,VALID,-0.0169808,VALID,17.85,VALID,123,VALID,1.26448,
2005-02-09, 02:53:00,VALID,918.177,VALID,0,VALID,92.2676,VALID,-0.0849042,VALID,17.8733,VALID,121,VALID,1.22247,
2005-02-09, 02:54:00,VALID,918.161,VALID,0,VALID,92.0146,VALID,-0.0509425,VALID,17.8959,VALID,114,VALID,0.971875,
2005-02-09, 02:55:00,VALID,918.153,VALID,0,VALID,91.937,VALID,-0.0509425,VALID,17.9051,VALID,129,VALID,1.35435,
2005-02-09, 02:56:00,VALID,918.124,VALID,0,VALID,91.7908,VALID,0,VALID,17.9146,VALID,128,VALID,1.23556,
2005-02-09, 02:57:00,VALID,918.12,VALID,0,VALID,91.7475,VALID,-0.0169808,VALID,17.9406,VALID,123,VALID,1.07908,
2005-02-09, 02:58:00,VALID,918.1,VALID,0,VALID,91.8162,VALID,-0.0169808,VALID,17.9406,VALID,119,VALID,1.33594,
2005-02-09, 02:59:00,VALID,918.081,VALID,0,VALID,91.8531,VALID,-0.0509425,VALID,17.9436,VALID,119,VALID,0.947359,
2005-02-09, 03:00:00,VALID,918.074,VALID,0,VALID,91.8963,VALID,0,VALID,17.9374,VALID,134,VALID,0.794141,
2005-02-09, 03:01:00,VALID,918.092,VALID,0,VALID,91.9485,VALID,0,VALID,17.9047,VALID,128,VALID,1.12147,
2005-02-09, 03:02:00,VALID,918.085,VALID,0,VALID,92.0413,VALID,-0.0169808,VALID,17.8627,VALID,123,VALID,1.15371,
2005-02-09, 03:03:00,VALID,918.084,VALID,0,VALID,92.2664,VALID,-0.0509425,VALID,17.8373,VALID,134,VALID,1.41815,
2005-02-09, 03:04:00,VALID,918.087,VALID,0,VALID,92.5932,VALID,-0.0169808,VALID,17.7984,VALID,133,VALID,1.39898,
2005-02-09, 03:05:00,VALID,918.094,VALID,0,VALID,92.8309,VALID,-0.0339617,VALID,17.7695,VALID,125,VALID,1.41164,
2005-02-09, 03:06:00,VALID,918.108,VALID,0,VALID,93.2162,VALID,-0.0509425,VALID,17.7274,VALID,133,VALID,1.46147,
2005-02-09, 03:07:00,VALID,918.11,VALID,0,VALID,93.421,VALID,-0.0339617,VALID,17.7045,VALID,135,VALID,1.54524,
2005-02-09, 03:08:00,VALID,918.112,VALID,0,VALID,93.3688,VALID,-0.0339617,VALID,17.7274,VALID,139,VALID,1.30025,
2005-02-09, 03:09:00,VALID,918.121,VALID,0,VALID,93.1336,VALID,-0.0169808,VALID,17.7202,VALID,135,VALID,1.41389,
2005-02-09, 03:10:00,VALID,918.111,VALID,0,VALID,93.0052,VALID,0,VALID,17.7209,VALID,136,VALID,1.41152,
2005-02-09, 03:11:00,VALID,918.094,VALID,0,VALID,93.0408,VALID,-0.0679233,VALID,17.7207,VALID,128,VALID,1.47929,
2005-02-09, 03:12:00,VALID,918.076,VALID,0,VALID,92.9111,VALID,0,VALID,17.7695,VALID,128,VALID,1.50091,
2005-02-09, 03:13:00,VALID,918.037,VALID,0,VALID,92.9301,VALID,-0.0169808,VALID,17.7919,VALID,128,VALID,1.5638,
2005-02-09, 03:14:00,VALID,918.024,VALID,0,VALID,92.6211,VALID,0.0169808,VALID,17.8532,VALID,113,VALID,1.32087,
2005-02-09, 03:15:00,VALID,918.001,VALID,0,VALID,92.3643,VALID,0,VALID,17.915,VALID,96,VALID,1.60677,
2005-02-09, 03:16:00,VALID,917.993,VALID,0,VALID,92.026,VALID,-0.0169808,VALID,17.9464,VALID,99,VALID,1.60595,
2005-02-09, 03:17:00,VALID,917.999,VALID,0,VALID,91.792,VALID,0,VALID,17.9849,VALID,109,VALID,1.73247,
2005-02-09, 03:18:00,VALID,918.009,VALID,0,VALID,91.5492,VALID,-0.0169808,VALID,18.0375,VALID,108,VALID,1.76699,
2005-02-09, 03:19:00,VALID,918.018,VALID,0,VALID,91.3317,VALID,-0.0169808,VALID,18.0792,VALID,118,VALID,1.32013,
2005-02-09, 03:20:00,VALID,918.012,VALID,0,VALID,91.1067,VALID,0,VALID,18.1304,VALID,120,VALID,2.02539,
2005-02-09, 03:21:00,VALID,918.032,VALID,0,VALID,90.5611,VALID,0,VALID,18.2496,VALID,128,VALID,1.33873,
2005-02-09, 03:22:00,VALID,918.026,VALID,0,VALID,90.2025,VALID,-0.0169808,VALID,18.3442,VALID,129,VALID,1.42931,
2005-02-09, 03:23:00,VALID,918.026,VALID,0,VALID,90.0054,VALID,0,VALID,18.3728,VALID,139,VALID,1.18555,
2005-02-09, 03:24:00,VALID,918.019,VALID,0,VALID,89.9139,VALID,-0.0169808,VALID,18.3629,VALID,135,VALID,1.70684,
2005-02-09, 03:25:00,VALID,918.026,VALID,0,VALID,90.1339,VALID,0,VALID,18.3048,VALID,135,VALID,1.52986,
2005-02-09, 03:26:00,VALID,918.02,VALID,0,VALID,90.4149,VALID,-0.0339617,VALID,18.2432,VALID,138,VALID,1.32431,
2005-02-09, 03:27:00,VALID,918.003,VALID,0,VALID,90.7481,VALID,-0.0169808,VALID,18.1754,VALID,134,VALID,1.48531,
2005-02-09, 03:28:00,VALID,918.006,VALID,0,VALID,91.0011,VALID,-0.0169808,VALID,18.1339,VALID,131,VALID,1.40225,
2005-02-09, 03:29:00,VALID,917.995,VALID,0,VALID,91.1473,VALID,-0.0169808,VALID,18.0889,VALID,140,VALID,1.42312,
2005-02-09, 03:30:00,VALID,917.982,VALID,0,VALID,91.2796,VALID,-0.0169808,VALID,18.0273,VALID,135,VALID,1.13038,
2005-02-09, 03:31:00,VALID,917.986,VALID,0,VALID,91.5797,VALID,0,VALID,17.9757,VALID,140,VALID,1.29669,
2005-02-09, 03:32:00,VALID,917.987,VALID,0,VALID,91.7234,VALID,0,VALID,17.9171,VALID,146,VALID,1.30885,
2005-02-09, 03:33:00,VALID,917.992,VALID,0,VALID,91.876,VALID,0,VALID,17.8685,VALID,145,VALID,1.46254,
2005-02-09, 03:34:00,VALID,917.985,VALID,0,VALID,92.129,VALID,0,VALID,17.8304,VALID,146,VALID,1.39025,